Wind_Speed
79 76 71 68 62 57 52 49 45 40 29 30 25 21 35 24 21 17 19 8 7 7 5 6 16 22 22 24 23 25 30 33 34 33 34 34 32 33 33 34 33 31 32 30
80 78 76 71 66 60 55 50 47 42 39 33 19 22 24 28 21 21 16 12 10 9 2 2 15 19 22 21 22 21 26 30 31 28 32 32 33 35 33 32 32 30 31 30
83 84 79 75 70 66 62 54 51 49 49 43 30 28 29 29 26 16 18 16 14 13 5 3 8 12 19 21 19 19 18 23 27 23 19 26 28 32 36 33 31 31 30 31
84 85 82 77 75 71 65 58 54 51 55 53 38 42 34 39 33 31 27 23 18 16 9 10 4 7 15 18 18 17 13 14 21 21 19 18 23 25 31 34 35 30 32 31
84 85 82 79 79 75 69 64 60 53 55 47 47 45 40 39 40 32 30 29 25 22 13 12 7 4 6 12 14 15 12 12 17 14 17 18 21 21 25 30 36 39 34 32
81 86 84 84 82 78 74 67 63 61 53 57 59 49 58 55 52 52 42 40 31 23 18 16 9 10 5 6 9 10 12 11 10 13 16 17 18 20 22 25 28 31 34 34
82 82 83 85 85 82 76 72 67 66 50 63 65 54 55 54 46 47 48 43 35 30 24 17 17 11 13 4 8 7 6 8 10 7 10 11 14 16 16 19 21 26 28 33
84 80 80 87 87 85 80 78 74 81 74 51 72 61 52 50 49 44 47 44 45 37 34 25 25 20 19 13 9 4 2 5 6 9 11 10 8 10 14 15 18 21 21 25
84 85 88 92 90 89 86 85 82 85 82 53 69 62 57 50 46 48 53 50 50 43 39 39 34 27 23 14 12 7 5 2 5 6 10 9 5 6 11 11 14 14 17 20
83 83 84 89 92 91 90 90 89 92 84 71 66 79 79 60 57 49 51 51 51 48 43 40 41 34 27 27 22 18 12 11 7 4 7 7 5 6 10 11 13 11 11 12
82 83 85 88 91 92 92 92 89 92 98 91 74 81 79 65 55 53 55 58 58 54 51 47 44 38 33 31 29 26 24 20 17 12 12 8 9 10 12 11 11 12 10 9
80 84 90 83 86 94 95 95 93 92 91 92 84 78 79 69 43 41 57 60 59 55 52 48 46 40 36 38 35 36 32 31 25 20 18 20 17 17 17 17 12 10 13 9
82 79 82 85 87 90 94 95 94 92 95 94 98 89 75 78 66 59 79 75 68 58 53 49 45 38 39 47 32 26 35 31 34 22 16 24 28 27 22 19 18 13 13 14
78 83 85 93 92 90 92 95 94 95 94 94 97 95 88 84 82 69 54 75 79 67 61 56 49 41 43 37 33 40 40 15 21 11 12 18 19 35 25 20 18 20 17 15
79 82 92 91 90 92 88 92 94 93 91 95 98 98 97 86 82 82 51 66 65 67 61 60 53 51 53 52 43 49 50 50 44 39 29 37 30 36 26 25 19 23 23 21
71 81 86 91 90 89 87 87 86 91 95 95 100 96 90 79 49 66 88 60 67 62 58 61 58 62 60 62 55 47 47 45 48 50 48 45 42 41 37 35 28 26 26 25
71 78 81 89 92 92 90 93 93 92 96 97 103 94 90 84 83 60 53 75 67 65 60 63 60 65 64 60 62 63 63 59 54 48 48 53 52 51 50 44 43 38 39 32
70 75 78 86 88 88 90 92 89 94 93 103 95 86 88 90 96 70 57 71 90 77 69 66 71 65 67 68 67 65 62 56 60 57 55 52 56 50 54 53 48 53 49 42
67 72 78 79 86 88 91 96 95 93 92 91 84 77 79 86 94 95 92 60 61 100 88 85 76 71 68 75 70 55 64 62 64 61 57 58 63 58 57 55 56 54 54 53
64 69 71 81 86 91 98 94 92 93 94 89 86 80 79 81 87 95 102 99 90 81 98 89 84 83 81 82 81 77 65 61 55 61 61 60 60 60 55 56 58 60 63 60
61 70 72 76 73 80 90 92 95 101 97 95 93 81 59 69 85 90 101 98 69 79 96 94 99 95 92 92 91 94 90 85 86 88 87 74 65 60 59 59 58 62 51 56
51 64 72 72 71 74 78 86 94 101 98 99 98 89 94 69 68 85 93 106 113 85 73 78 105 102 97 96 94 97 102 98 94 92 82 82 73 74 65 64 69 67 63 65
37 47 64 73 78 80 78 80 88 96 102 101 101 101 100 112 105 91 92 100 103 106 109 111 98 101 106 103 100 103 94 82 85 87 86 82 83 81 74 74 75 70 69 65
45 45 54 56 79 84 84 84 85 86 96 100 103 99 101 108 108 103 107 98 99 111 103 94 90 94 108 110 107 104 107 107 100 97 91 84 84 88 88 82 83 83 83 88
48 51 58 65 64 85 93 88 93 91 93 94 93 99 99 98 106 110 110 111 113 110 109 115 114 110 107 109 111 112 111 110 109 105 104 106 99 96 89 86 88 89 86 88
29 36 44 52 61 65 78 94 93 94 92 90 91 92 94 98 106 105 106 108 111 112 110 111 109 108 108 109 112 116 117 115 114 111 109 110 111 107 103 103 103 99 96 96
Wind_Direction
210 209 210 209 208 205 205 204 208 202 200 198 206 212 215 217 221 219 238 260 308 350 357 64 71 70 56 53 51 56 58 53 49 48 47 44 48 51 53 57 62 66 72 82
208 208 208 209 206 206 204 203 205 195 194 187 198 203 200 215 220 216 236 261 285 315 319 79 90 71 63 59 53 55 64 65 54 47 39 45 46 45 48 54 57 58 66 72
207 208 205 205 204 205 203 199 203 197 196 192 188 196 198 202 196 211 246 258 277 289 273 145 105 66 67 65 55 55 63 66 63 72 45 45 38 42 43 45 56 58 58 65
208 207 204 205 204 204 201 200 199 193 202 206 210 219 213 211 215 228 238 258 265 281 245 255 172 84 60 64 60 48 54 62 73 60 60 51 33 38 41 41 50 55 56 61
208 207 205 204 205 203 201 201 199 190 205 204 212 219 212 220 219 220 237 252 255 255 246 251 242 220 71 43 60 55 43 50 62 64 58 49 38 38 46 46 46 46 52 55
207 208 206 203 203 202 201 199 200 197 204 215 215 213 226 232 236 238 240 245 246 241 237 242 238 233 235 352 27 61 51 40 52 60 51 51 49 43 46 45 43 42 42 46
205 207 208 206 203 201 200 197 197 192 200 210 205 210 221 225 223 230 233 240 241 246 234 240 240 240 258 263 340 12 67 59 38 56 41 47 50 44 40 40 46 45 42 44
204 202 205 207 205 200 197 198 196 194 203 202 211 206 214 218 220 223 229 234 242 240 242 240 252 260 262 253 295 308 29 80 85 39 24 22 41 40 37 35 41 51 51 47
206 203 204 206 204 201 199 198 198 192 199 193 196 204 217 220 226 234 239 239 235 234 244 244 251 256 253 254 274 274 290 188 84 51 28 8 38 32 27 27 29 37 49 47
207 206 208 207 206 202 203 200 199 199 200 209 205 209 213 226 229 226 229 229 230 237 243 242 251 262 261 258 270 258 266 275 284 331 18 12 344 43 24 14 8 11 44 51
208 207 207 210 208 205 207 203 203 205 206 206 202 208 212 208 228 233 233 230 227 234 241 241 248 255 264 264 265 252 248 259 266 267 287 341 352 332 335 358 357 357 360 24
212 207 209 208 210 210 208 207 206 206 209 212 208 206 211 209 207 237 225 224 235 238 235 240 246 247 248 255 257 245 245 248 251 267 277 287 299 316 310 310 323 323 340 318
213 212 210 209 211 212 212 210 210 209 211 212 214 212 207 209 213 223 228 236 239 239 238 236 242 239 250 252 255 226 232 253 252 243 262 287 288 288 292 287 303 298 313 317
214 211 211 209 210 210 212 212 213 213 213 215 217 211 214 211 217 226 230 230 235 236 237 238 238 238 247 238 226 217 231 231 179 250 290 266 281 284 287 272 281 291 289 305
210 209 212 208 211 213 214 213 213 215 216 217 221 214 211 217 225 227 233 220 225 231 237 233 230 226 235 233 232 244 239 246 240 249 232 226 258 271 267 265 276 280 270 287
214 212 212 210 210 213 213 214 215 216 218 219 223 217 213 214 220 252 232 228 220 232 236 232 235 232 236 237 236 242 234 235 245 247 251 248 246 244 258 255 256 272 270 266
211 213 208 212 212 214 214 217 216 215 217 220 223 220 214 211 203 224 237 219 215 214 226 237 239 238 236 234 239 236 248 254 254 252 248 249 251 250 255 257 260 260 266 276
210 209 211 213 213 214 216 218 218 220 221 224 227 221 218 216 212 220 223 223 222 219 218 225 233 232 229 230 238 243 242 243 243 250 251 247 260 252 261 259 256 255 258 261
207 206 210 213 216 216 218 218 218 220 222 225 224 219 224 225 226 226 225 221 235 225 224 221 220 221 226 231 229 230 227 227 238 239 238 249 255 259 255 250 255 252 251 253
207 208 208 212 214 217 220 218 221 224 223 224 222 220 219 221 229 229 230 233 238 230 223 221 219 219 224 224 227 228 219 228 233 231 245 246 254 249 245 249 252 246 252 264
206 207 209 213 214 223 224 222 222 225 220 222 223 215 208 225 228 230 230 230 225 226 223 225 226 225 224 224 228 230 230 237 242 247 250 248 248 246 249 253 250 257 260 251
206 210 211 215 215 218 221 225 225 225 223 224 223 216 209 221 218 224 229 228 228 222 225 228 229 233 231 224 230 231 233 236 241 241 245 244 241 240 243 247 251 256 253 250
189 206 213 216 218 217 222 225 228 229 225 224 225 219 218 223 229 224 223 228 229 234 237 239 237 237 238 239 235 237 236 237 239 242 245 246 243 241 240 248 251 251 247 249
215 208 190 210 220 223 224 226 228 228 231 229 228 227 225 226 229 228 228 227 230 229 227 227 230 235 236 239 242 243 244 245 244 241 241 241 249 247 245 249 245 249 252 261
219 222 223 219 223 221 221 225 229 230 232 233 231 229 227 234 234 233 232 233 234 237 236 236 240 241 240 239 241 243 245 246 248 248 246 247 245 242 240 241 243 246 247 247
219 222 228 235 235 234 228 226 230 234 235 236 234 230 231 230 235 236 238 238 238 238 239 239 240 240 239 239 240 241 243 244 245 247 247 246 246 245 245 245 247 250 249 248
Height
10882 10900 10912 10925 10937 10950 10959 10969 10974 10984 10988 10994 10996 10998 11000 11002 11006 11008 11011 11013 11014 11016 11017 11017 11015 11013 11011 11009 11008 11006 11002 11000 10998 10995 10994 10990 10986 10981 10979 10976 10975 10971 10970 10970
10870 10885 10898 10915 10931 10942 10951 10965 10970 10978 10983 10987 10992 10993 10996 10998 11002 11007 11010 11013 11014 11016 11018 11019 11018 11016 11014 11013 11012 11011 11009 11008 11005 10995 11003 11000 10995 10990 10986 10984 10982 10981 10979 10980
10855 10864 10886 10904 10920 10930 10943 10955 10963 10970 10978 10982 10985 10990 10993 10994 10997 11001 11005 11010 11014 11017 11019 11020 11020 11018 11017 11016 11015 11016 11016 11015 11012 11012 11013 11009 11004 10999 10994 10991 10990 10988 10988 10987
10839 10855 10877 10895 10907 10919 10934 10946 10958 10965 10972 10976 10983 10983 10988 10990 10993 10998 11003 11008 11013 11015 11019 11021 11022 11020 11019 11018 11019 11020 11020 11019 11018 11019 11017 11018 11010 11005 11003 10999 10996 10995 10994 10992
10828 10849 10870 10884 10896 10910 10927 10935 10950 10956 10965 10970 10974 10978 10985 10979 10990 10995 11001 11006 11012 11015 11017 11020 11022 11022 11022 11021 11021 11022 11023 11021 11022 11022 11021 11019 11015 11012 11009 11007 11004 11002 11000 10998
10822 10837 10854 10867 10882 10899 10916 10928 10940 10951 10961 10961 10964 10969 10972 10976 10984 10992 10998 11003 11010 11012 11016 11019 11022 11022 11021 11023 11024 11025 11025 11025 11025 11025 11024 11022 11020 11017 11017 11013 11011 11008 11006 11005
10808 10829 10846 10857 10871 10888 10906 10917 10930 10942 10942 10943 10950 10958 10962 10971 10978 10987 10994 11000 11006 11010 11014 11017 11020 11021 11022 11023 11025 11027 11027 11027 11028 11027 11026 11026 11025 11024 11022 11020 11017 11015 11012 11012
10798 10817 10828 10836 10857 10877 10892 10903 10915 10913 10927 10931 10944 10957 10960 10966 10973 10980 10987 10996 11000 11007 11010 11014 11016 11020 11022 11024 11026 11027 11029 11029 11030 11030 11029 11029 11030 11030 11028 11024 11022 11020 11017 11016
10782 10795 10801 10819 10839 10859 10873 10888 10898 10907 10907 10926 10932 10960 10957 10959 10966 10972 10980 10987 10992 11000 11005 11010 11014 11018 11021 11025 11028 11029 11031 11031 11031 11032 11032 11032 11033 11033 11032 11030 11026 11024 11022 11021
10770 10792 10804 10814 10828 10847 10859 10871 10882 10897 10905 10912 10928 10937 10948 10955 10960 10964 10970 10978 10985 10992 10999 11004 11011 11014 11018 11022 11027 11028 11028 11028 11028 11031 11032 11033 11035 11037 11037 11034 11031 11027 11024 11023
10764 10778 10790 10801 10821 10836 10844 10862 10877 10885 10892 10900 10916 10926 10940 10951 10956 10958 10962 10969 10976 10984 10991 11001 11003 11008 11012 11015 11019 11020 11021 11021 11022 11024 11029 11034 11035 11038 11040 11039 11035 11030 11027 11027
10752 10762 10770 10797 10810 10819 10830 10845 10857 10872 10884 10891 10912 10913 10930 10943 10964 10934 10949 10961 10971 10978 10983 10992 10996 11002 11006 11006 11008 11008 11014 11014 11017 11023 11026 11030 11036 11037 11039 11039 11037 11034 11031 11029
10736 10760 10770 10785 10793 10803 10821 10835 10848 10860 10862 10875 10881 10899 10913 10923 10928 10932 10943 10953 10961 10972 10977 10983 10987 10994 10998 10999 11002 10999 11002 11004 11009 11020 11022 11020 11025 11033 11036 11036 11036 11034 11031 11029
10729 10738 10753 10758 10768 10785 10797 10816 10831 10841 10851 10862 10868 10886 10900 10910 10912 10928 10938 10941 10948 10959 10965 10973 10981 10990 11001 10997 10996 10994 10995 11007 11004 11012 11017 11003 11013 11025 11030 11032 11031 11032 11030 11027
10705 10719 10725 10745 10763 10773 10794 10804 10815 10829 10845 10847 10845 10869 10887 10905 10916 10924 10932 10933 10937 10946 10954 10963 10972 10979 10981 10987 10991 10990 10992 10995 10998 11005 11018 11015 11016 11021 11022 11026 11026 11026 11027 11025
10699 10706 10724 10735 10750 10765 10780 10790 10806 10816 10822 10831 10824 10859 10884 10902 10953 10919 10923 10932 10929 10936 10945 10953 10960 10967 10969 10974 10980 10978 10978 10983 10991 10999 11000 11006 11016 11019 11017 11019 11020 11021 11021 11021
10683 10694 10714 10721 10732 10753 10765 10769 10784 10796 10798 10809 10805 10843 10873 10884 10905 10888 10891 10913 10917 10926 10934 10939 10947 10953 10957 10960 10962 10969 10970 10971 10975 10985 10991 10996 11002 11005 11008 11011 11012 11014 11015 11014
10672 10684 10701 10710 10726 10739 10747 10758 10778 10775 10794 10790 10814 10848 10861 10872 10876 10871 10879 10897 10904 10908 10919 10924 10933 10940 10943 10949 10952 10956 10960 10962 10967 10974 10981 10985 10989 10991 10992 10996 11000 11002 11005 11007
10661 10675 10688 10701 10712 10725 10734 10736 10752 10765 10776 10786 10816 10835 10851 10861 10858 10865 10870 10875 10877 10886 10898 10906 10915 10925 10927 10935 10942 10944 10945 10950 10955 10960 10965 10970 10973 10977 10979 10982 10984 10986 10992 10992
10652 10663 10673 10687 10694 10700 10712 10731 10742 10755 10761 10773 10793 10811 10829 10835 10842 10844 10842 10857 10861 10864 10877 10887 10898 10904 10912 10918 10921 10927 10931 10937 10940 10943 10949 10954 10955 10958 10964 10967 10970 10973 10976 10978
10637 10648 10658 10668 10685 10695 10704 10716 10723 10722 10744 10752 10769 10799 10817 10814 10812 10809 10820 10834 10842 10848 10857 10868 10875 10883 10891 10895 10900 10905 10913 10919 10923 10928 10934 10938 10942 10944 10947 10950 10953 10957 10960 10961
10624 10637 10650 10659 10674 10678 10685 10695 10699 10705 10727 10738 10755 10775 10775 10769 10771 10779 10794 10810 10820 10829 10836 10845 10856 10858 10866 10877 10880 10886 10892 10898 10901 10909 10913 10922 10925 10928 10933 10936 10939 10943 10946 10947
10617 10628 10643 10654 10657 10662 10672 10679 10681 10689 10705 10717 10727 10750 10754 10752 10756 10768 10780 10790 10798 10807 10817 10828 10835 10841 10846 10854 10860 10864 10875 10881 10886 10894 10899 10903 10906 10909 10915 10920 10924 10924 10927 10928
10613 10620 10625 10616 10639 10654 10656 10662 10668 10676 10683 10703 10712 10727 10739 10741 10747 10756 10765 10772 10778 10788 10796 10802 10810 10819 10827 10833 10838 10844 10850 10856 10865 10872 10878 10885 10888 10893 10895 10897 10903 10904 10908 10909
10609 10616 10617 10621 10625 10630 10640 10651 10649 10660 10667 10680 10694 10704 10717 10723 10723 10732 10742 10748 10757 10763 10774 10783 10788 10794 10803 10810 10814 10820 10827 10833 10838 10846 10853 10859 10864 10870 10872 10874 10878 10884 10888 10890
10603 10607 10611 10616 10616 10621 10630 10633 10639 10647 10655 10663 10673 10683 10695 10704 10699 10711 10716 10724 10732 10739 10744 10755 10762 10771 10777 10783 10789 10795 10801 10808 10814 10821 10826 10832 10839 10845 10848 10851 10854 10860 10866 10869